TimeEDT,TemperatureF,Dew PointF,Humidity,Sea Level PressureIn,VisibilityMPH,Wind Direction,Wind SpeedMPH,Gust SpeedMPH,PrecipitationIn,Events,Conditions,WindDirDegrees,DateUTC
12:54 AM,46.0,30.9,56,29.96,10.0,Calm,Calm,-,N/A,,Clear,0,2013-03-31 04:54:00
1:54 AM,46.0,30.9,56,29.94,10.0,Calm,Calm,-,N/A,,Clear,0,2013-03-31 05:54:00
2:54 AM,46.0,30.9,56,29.92,10.0,Calm,Calm,-,N/A,,Mostly Cloudy,0,2013-03-31 06:54:00
3:54 AM,44.1,35.1,71,29.90,9.0,Calm,Calm,-,0.00,Rain,Light Rain,0,2013-03-31 07:54:00
4:54 AM,45.0,39.0,80,29.91,5.0,South,5.8,-,0.02,Rain,Rain,170,2013-03-31 08:54:00
5:54 AM,43.0,41.0,93,29.87,7.0,Calm,Calm,-,0.07,Rain,Light Rain,0,2013-03-31 09:54:00
6:54 AM,44.1,42.1,93,29.84,7.0,NNE,4.6,-,0.01,Rain,Light Rain,30,2013-03-31 10:54:00
7:54 AM,45.0,43.0,93,29.83,7.0,NE,4.6,-,0.04,Rain,Light Rain,50,2013-03-31 11:54:00
8:54 AM,46.0,43.0,89,29.82,5.0,Calm,Calm,-,0.00,Rain,Light Rain,0,2013-03-31 12:54:00
9:54 AM,46.9,45.0,93,29.81,5.0,Calm,Calm,-,0.00,Rain,Light Rain,0,2013-03-31 13:54:00
10:54 AM,48.0,46.0,93,29.80,4.0,Calm,Calm,-,0.01,Rain,Light Rain,0,2013-03-31 14:54:00
11:00 AM,48.2,46.4,93,29.79,2.0,Calm,Calm,-,0.00,Rain,Light Rain,0,2013-03-31 15:00:00
11:54 AM,50.0,48.0,93,29.80,2.0,Calm,Calm,-,0.01,Rain,Light Rain,0,2013-03-31 15:54:00
12:54 PM,51.1,48.9,92,29.80,2.0,West,6.9,-,0.00,Rain,Light Rain,260,2013-03-31 16:54:00
1:54 PM,52.0,48.9,89,29.81,2.0,West,9.2,-,0.02,Rain,Rain,260,2013-03-31 17:54:00
2:54 PM,52.0,48.9,89,29.81,2.0,West,6.9,-,0.01,Rain,Light Rain,270,2013-03-31 18:54:00
3:48 PM,53.6,48.2,82,29.81,5.0,WSW,12.7,19.6,0.00,,Overcast,240,2013-03-31 19:48:00
3:54 PM,53.1,48.0,83,29.82,7.0,West,9.2,19.6,0.00,,Overcast,260,2013-03-31 19:54:00
4:54 PM,53.1,48.0,83,29.81,9.0,West,5.8,-,0.00,Rain,Light Rain,260,2013-03-31 20:54:00
5:47 PM,53.6,46.4,77,29.80,10.0,WSW,6.9,-,0.00,,Overcast,250,2013-03-31 21:47:00
5:54 PM,53.1,46.9,80,29.80,10.0,West,6.9,-,0.00,,Overcast,270,2013-03-31 21:54:00
6:54 PM,52.0,46.0,80,29.82,10.0,West,8.1,-,N/A,,Mostly Cloudy,260,2013-03-31 22:54:00
7:54 PM,51.1,45.0,80,29.83,10.0,West,6.9,-,N/A,,Mostly Cloudy,260,2013-03-31 23:54:00
8:47 PM,51.8,44.6,76,29.84,10.0,WSW,6.9,-,N/A,,Mostly Cloudy,240,2013-04-01 00:47:00
8:54 PM,51.1,45.0,80,29.84,10.0,WSW,9.2,-,N/A,,Mostly Cloudy,240,2013-04-01 00:54:00
9:54 PM,48.0,44.1,86,29.85,10.0,SSW,4.6,-,N/A,,Mostly Cloudy,200,2013-04-01 01:54:00
10:54 PM,48.9,45.0,86,29.85,10.0,South,4.6,-,N/A,,Partly Cloudy,180,2013-04-01 02:54:00
11:54 PM,45.0,43.0,93,29.84,6.0,SSW,3.5,-,N/A,,Partly Cloudy,210,2013-04-01 03:54:00